| time (UTC) | temp F | wind direction | speed knots | gust knots | rain 1hr in | rain 24hr in | rain mn in | humidity % | barometer mb |
| 20260506215530 | 63 | 115 | 0.0 | 7.0 | 0.00 | 0.70 | 0.00 | 77 | 1010.4 |
| 20260506215033 | 63 | 157 | 1.7 | 9.6 | 0.00 | 0.70 | 0.00 | 78 | 1010.3 |
| 20260506214530 | 63 | 179 | 1.7 | 8.7 | 0.00 | 0.70 | 0.00 | 78 | 1010.3 |
| 20260506214039 | 63 | 208 | 1.7 | 5.2 | 0.00 | 0.70 | 0.00 | 78 | 1010.3 |
| 20260506213533 | 63 | 103 | 0.9 | 9.6 | 0.00 | 0.70 | 0.00 | 78 | 1010.4 |
| 20260506213039 | 63 | 141 | 1.7 | 4.3 | 0.00 | 0.70 | 0.00 | 78 | 1010.5 |
| 20260506212530 | 63 | 123 | 0.9 | 4.3 | 0.00 | 0.70 | 0.00 | 79 | 1010.5 |
| 20260506212033 | 63 | 128 | 0.9 | 4.3 | 0.00 | 0.70 | 0.00 | 78 | 1010.3 |
| 20260506211530 | 63 | 112 | 3.5 | 7.0 | 0.00 | 0.70 | 0.00 | 78 | 1010.3 |
| 20260506211030 | 63 | 139 | 7.8 | 7.8 | 0.00 | 0.70 | 0.00 | 78 | 1010.3 |
| 20260506210530 | 63 | 171 | 0.0 | 5.2 | 0.00 | 0.70 | 0.00 | 78 | 1010.3 |
| 20260506210030 | 63 | 222 | 0.0 | 7.8 | 0.00 | 0.70 | 0.00 | 78 | 1010.3 |
| 20260506205530 | 63 | 148 | 1.7 | 5.2 | 0.00 | 0.70 | 0.00 | 78 | 1010.3 |
| 20260506205033 | 63 | 133 | 2.6 | 6.1 | 0.00 | 0.70 | 0.00 | 78 | 1010.3 |
| 20260506204533 | 63 | 157 | 1.7 | 8.7 | 0.00 | 0.70 | 0.00 | 78 | 1010.3 |
| 20260506204033 | 63 | 103 | 7.0 | 7.0 | 0.00 | 0.70 | 0.00 | 78 | 1010.2 |
| 20260506203536 | 63 | 88 | 0.0 | 8.7 | 0.00 | 0.70 | 0.00 | 78 | 1010.1 |
| 20260506203033 | 63 | 135 | 0.9 | 7.8 | 0.00 | 0.70 | 0.00 | 78 | 1010.1 |
| 20260506202533 | 63 | 96 | 3.5 | 7.8 | 0.00 | 0.70 | 0.00 | 78 | 1010.1 |
| 20260506202030 | 63 | 146 | 0.9 | 6.1 | 0.00 | 0.70 | 0.00 | 78 | 1010.1 |
| 20260506201530 | 63 | 161 | 1.7 | 4.3 | 0.00 | 0.70 | 0.00 | 78 | 1010.1 |
| 20260506201033 | 63 | 127 | 0.9 | 3.5 | 0.00 | 0.70 | 0.00 | 78 | 1010.1 |
| 20260506200530 | 63 | 138 | 1.7 | 6.1 | 0.00 | 0.70 | 0.00 | 78 | 1010.0 |
| 20260506200036 | 63 | 146 | 0.0 | 7.0 | 0.00 | 0.70 | 0.00 | 78 | 1009.9 |
| 20260506195533 | 63 | 118 | 5.2 | 5.2 | 0.00 | 0.70 | 0.00 | 78 | 1009.9 |
| 20260506195030 | 63 | 132 | 0.0 | 4.3 | 0.00 | 0.70 | 0.00 | 77 | 1009.7 |
| 20260506194530 | 63 | 247 | 0.0 | 7.8 | 0.00 | 0.70 | 0.00 | 77 | 1009.6 |
| 20260506194033 | 63 | 234 | 2.6 | 3.5 | 0.00 | 0.70 | 0.00 | 78 | 1009.6 |
| 20260506193530 | 63 | 142 | 0.9 | 8.7 | 0.00 | 0.70 | 0.00 | 78 | 1009.6 |
| 20260506193036 | 63 | 123 | 7.0 | 7.0 | 0.00 | 0.70 | 0.00 | 78 | 1009.6 |
| 20260506192530 | 63 | 135 | 0.9 | 8.7 | 0.00 | 0.70 | 0.00 | 78 | 1009.5 |
| 20260506192036 | 63 | 123 | 0.0 | 2.6 | 0.00 | 0.70 | 0.00 | 78 | 1009.5 |
| 20260506191530 | 63 | 124 | 0.9 | 2.6 | 0.00 | 0.70 | 0.00 | 79 | 1009.4 |
| 20260506191039 | 63 | 132 | 0.9 | 7.8 | 0.00 | 0.70 | 0.00 | 79 | 1009.3 |
| 20260506190530 | 63 | 138 | 0.0 | 4.3 | 0.00 | 0.70 | 0.00 | 79 | 1009.3 |
| 20260506190039 | 63 | 175 | 2.6 | 7.0 | 0.00 | 0.70 | 0.00 | 79 | 1009.2 |
| 20260506185539 | 63 | 123 | 0.0 | 4.3 | 0.00 | 0.70 | 0.00 | 80 | 1009.2 |
| 20260506185030 | 63 | 129 | 0.9 | 7.0 | 0.00 | 0.70 | 0.00 | 80 | 1009.1 |
| 20260506184536 | 63 | 172 | 0.9 | 6.1 | 0.00 | 0.70 | 0.00 | 80 | 1009.0 |
| 20260506184033 | 63 | 139 | 4.3 | 7.0 | 0.00 | 0.70 | 0.00 | 80 | 1009.0 |
| 20260506183530 | 63 | 117 | 0.0 | 7.8 | 0.00 | 0.70 | 0.00 | 80 | 1008.9 |
| 20260506183033 | 63 | 103 | 6.1 | 7.0 | 0.00 | 0.70 | 0.00 | 80 | 1008.9 |
| 20260506182533 | 63 | 92 | 0.0 | 9.6 | 0.00 | 0.70 | 0.00 | 80 | 1008.8 |
| 20260506182033 | 63 | 132 | 0.9 | 7.8 | 0.00 | 0.70 | 0.00 | 81 | 1008.8 |
| 20260506181530 | 63 | 112 | 0.9 | 6.1 | 0.00 | 0.70 | 0.00 | 81 | 1008.6 |
| 20260506181036 | 63 | 117 | 2.6 | 7.8 | 0.00 | 0.70 | 0.00 | 81 | 1008.5 |
| 20260506180536 | 63 | 123 | 4.3 | 10.4 | 0.00 | 0.70 | 0.00 | 81 | 1008.4 |
| 20260506180033 | 63 | 154 | 1.7 | 8.7 | 0.00 | 0.70 | 0.00 | 81 | 1008.4 |
| 20260506175530 | 63 | 221 | 0.9 | 5.2 | 0.00 | 0.70 | 0.00 | 81 | 1008.3 |
| 20260506175033 | 64 | 158 | 2.6 | 7.8 | 0.00 | 0.70 | 0.00 | 81 | 1008.3 |
| 20260506174533 | 64 | 136 | 2.6 | 7.0 | 0.00 | 0.70 | 0.00 | 81 | 1008.4 |
| 20260506174030 | 64 | 217 | 1.7 | 8.7 | 0.00 | 0.70 | 0.00 | 81 | 1008.3 |
| 20260506173530 | 64 | 167 | 0.9 | 6.1 | 0.00 | 0.70 | 0.00 | 80 | 1008.3 |
| 20260506173036 | 64 | 209 | 4.3 | 9.6 | 0.00 | 0.70 | 0.00 | 80 | 1008.3 |
| 20260506172533 | 64 | 81 | 7.8 | 12.2 | 0.00 | 0.70 | 0.00 | 79 | 1008.3 |
| 20260506172030 | 64 | 139 | 1.7 | 8.7 | 0.00 | 0.70 | 0.00 | 79 | 1008.3 |
| 20260506171533 | 64 | 138 | 1.7 | 7.8 | 0.00 | 0.70 | 0.00 | 78 | 1008.3 |
| 20260506171033 | 64 | 130 | 2.6 | 7.0 | 0.00 | 0.70 | 0.00 | 78 | 1008.2 |
| 20260506170530 | 65 | 288 | 0.0 | 10.4 | 0.00 | 0.70 | 0.00 | 77 | 1008.3 |
| 20260506170030 | 65 | 107 | 5.2 | 8.7 | 0.00 | 0.70 | 0.00 | 77 | 1008.2 |
| 20260506165530 | 65 | 148 | 1.7 | 8.7 | 0.00 | 0.70 | 0.00 | 76 | 1008.1 |
| 20260506165033 | 66 | 165 | 3.5 | 9.6 | 0.00 | 0.70 | 0.00 | 76 | 1008.2 |
| 20260506164530 | 66 | 241 | 5.2 | 8.7 | 0.00 | 0.70 | 0.00 | 74 | 1008.2 |
| 20260506164036 | 67 | 133 | 4.3 | 9.6 | 0.00 | 0.70 | 0.00 | 75 | 1008.3 |
| 20260506163530 | 66 | 211 | 1.7 | 10.4 | 0.00 | 0.70 | 0.00 | 74 | 1008.3 |
| 20260506163039 | 67 | 121 | 1.7 | 7.0 | 0.00 | 0.70 | 0.00 | 76 | 1008.2 |
| 20260506162530 | 66 | 232 | 0.9 | 8.7 | 0.00 | 0.70 | 0.00 | 75 | 1008.2 |
| 20260506162033 | 66 | 155 | 5.2 | 7.8 | 0.00 | 0.70 | 0.00 | 75 | 1008.2 |
| 20260506161530 | 66 | 139 | 1.7 | 7.8 | 0.00 | 0.70 | 0.00 | 75 | 1008.2 |
| 20260506161033 | 67 | 138 | 0.0 | 4.3 | 0.00 | 0.70 | 0.00 | 75 | 1008.2 |
| 20260506160530 | 66 | 272 | 7.0 | 8.7 | 0.00 | 0.70 | 0.00 | 75 | 1008.2 |
| 20260506160030 | 66 | 30 | 0.9 | 8.7 | 0.00 | 0.70 | 0.00 | 76 | 1008.2 |
| 20260506155530 | 66 | 140 | 3.5 | 8.7 | 0.00 | 0.70 | 0.00 | 76 | 1008.1 |
| 20260506155030 | 66 | 211 | 0.9 | 9.6 | 0.00 | 0.70 | 0.00 | 77 | 1008.1 |
| 20260506154533 | 66 | 140 | 7.0 | 10.4 | 0.00 | 0.70 | 0.00 | 77 | 1008.1 |
| 20260506154030 | 67 | 105 | 2.6 | 7.0 | 0.00 | 0.70 | 0.00 | 77 | 1008.1 |
| 20260506153536 | 67 | 154 | 7.0 | 10.4 | 0.00 | 0.70 | 0.00 | 75 | 1008.1 |
| 20260506153030 | 68 | 123 | 2.6 | 7.8 | 0.00 | 0.70 | 0.00 | 75 | 1008.0 |
| 20260506152530 | 68 | 123 | 1.7 | 6.1 | 0.00 | 0.70 | 0.00 | 75 | 1007.9 |
| 20260506152030 | 67 | 265 | 2.6 | 12.2 | 0.00 | 0.70 | 0.00 | 76 | 1008.0 |
| 20260506151533 | 68 | 138 | 6.1 | 11.3 | 0.00 | 0.70 | 0.00 | 76 | 1008.0 |
| 20260506151030 | 68 | 138 | 7.8 | 9.6 | 0.00 | 0.70 | 0.00 | 76 | 1008.0 |
| 20260506150536 | 68 | 284 | 1.7 | 10.4 | 0.00 | 0.70 | 0.00 | 76 | 1008.0 |
| 20260506150033 | 68 | 123 | 2.6 | 10.4 | 0.00 | 0.70 | 0.00 | 76 | 1008.0 |
| 20260506145539 | 68 | 146 | 2.6 | 6.1 | 0.00 | 0.70 | 0.00 | 76 | 1008.0 |
| 20260506145033 | 67 | 323 | 0.0 | 7.8 | 0.00 | 0.70 | 0.00 | 77 | 1008.0 |
| 20260506144539 | 67 | 136 | 4.3 | 9.6 | 0.00 | 0.70 | 0.00 | 76 | 1008.0 |
| 20260506144030 | 67 | 154 | 2.6 | 7.0 | 0.00 | 0.70 | 0.00 | 76 | 1008.0 |
| 20260506143530 | 67 | 275 | 2.6 | 7.8 | 0.00 | 0.70 | 0.00 | 77 | 1008.0 |
| 20260506143030 | 66 | 199 | 0.9 | 9.6 | 0.00 | 0.70 | 0.00 | 79 | 1008.0 |
| 20260506142530 | 66 | 153 | 1.7 | 7.0 | 0.00 | 0.70 | 0.00 | 78 | 1008.0 |
| 20260506142030 | 67 | 159 | 0.9 | 7.0 | 0.00 | 0.70 | 0.00 | 76 | 1008.0 |
| 20260506141530 | 67 | 124 | 2.6 | 9.6 | 0.00 | 0.70 | 0.00 | 76 | 1008.0 |
| 20260506141030 | 67 | 148 | 4.3 | 10.4 | 0.00 | 0.70 | 0.00 | 75 | 1008.0 |
| 20260506140533 | 68 | 150 | 7.0 | 8.7 | 0.00 | 0.70 | 0.00 | 73 | 1008.1 |
| 20260506140033 | 68 | 145 | 5.2 | 7.8 | 0.00 | 0.70 | 0.00 | 71 | 1008.1 |
| 20260506135530 | 68 | 180 | 1.7 | 7.8 | 0.00 | 0.70 | 0.00 | 72 | 1008.0 |
| 20260506135039 | 68 | 142 | 1.7 | 8.7 | 0.00 | 0.70 | 0.00 | 72 | 1008.2 |
| 20260506134536 | 68 | 131 | 4.3 | 6.1 | 0.00 | 0.70 | 0.00 | 71 | 1008.1 |
| 20260506134033 | 68 | 202 | 0.9 | 7.8 | 0.00 | 0.70 | 0.00 | 69 | 1008.2 |
| 20260506133536 | 68 | 138 | 2.6 | 9.6 | 0.00 | 0.70 | 0.00 | 69 | 1008.2 |
| 20260506133030 | 68 | 165 | 4.3 | 7.8 | 0.00 | 0.70 | 0.00 | 71 | 1008.3 |
| 20260506132533 | 68 | 136 | 4.3 | 9.6 | 0.00 | 0.70 | 0.00 | 70 | 1008.3 |
| 20260506132033 | 68 | 212 | 0.9 | 8.7 | 0.00 | 0.70 | 0.00 | 71 | 1008.3 |
| 20260506131530 | 68 | 152 | 1.7 | 9.6 | 0.00 | 0.70 | 0.00 | 71 | 1008.3 |
| 20260506131030 | 68 | 164 | 5.2 | 12.2 | 0.00 | 0.70 | 0.00 | 73 | 1008.3 |
| 20260506130530 | 69 | 179 | 2.6 | 8.7 | 0.00 | 0.70 | 0.00 | 73 | 1008.2 |
| 20260506130030 | 68 | 207 | 3.5 | 9.6 | 0.00 | 0.70 | 0.00 | 73 | 1008.2 |
| 20260506125530 | 68 | 150 | 2.6 | 8.7 | 0.00 | 0.70 | 0.00 | 73 | 1008.3 |
| 20260506125033 | 68 | 130 | 2.6 | 8.7 | 0.00 | 0.70 | 0.00 | 74 | 1008.3 |
| 20260506124530 | 69 | 142 | 2.6 | 7.8 | 0.00 | 0.70 | 0.00 | 73 | 1008.3 |
| 20260506124030 | 69 | 184 | 1.7 | 7.0 | 0.00 | 0.70 | 0.00 | 73 | 1008.2 |
| 20260506123530 | 69 | 169 | 0.0 | 6.1 | 0.00 | 0.70 | 0.00 | 74 | 1008.1 |
| 20260506123030 | 69 | 126 | 1.7 | 7.8 | 0.00 | 0.70 | 0.00 | 75 | 1008.0 |
| 20260506122536 | 68 | 139 | 1.7 | 7.0 | 0.00 | 0.70 | 0.00 | 77 | 1008.0 |
| 20260506122039 | 68 | 167 | 5.2 | 9.6 | 0.00 | 0.70 | 0.00 | 78 | 1008.0 |
| 20260506121530 | 68 | 157 | 6.1 | 8.7 | 0.00 | 0.70 | 0.00 | 78 | 1008.0 |
| 20260506121030 | 68 | 166 | 4.3 | 8.7 | 0.00 | 0.70 | 0.00 | 81 | 1007.9 |
| 20260506120539 | 67 | 167 | 4.3 | 7.8 | 0.00 | 0.70 | 0.00 | 81 | 1007.9 |
| 20260506120033 | 66 | 161 | 0.9 | 8.7 | 0.00 | 0.70 | 0.00 | 81 | 1007.9 |
| 20260506115533 | 66 | 185 | 1.7 | 8.7 | 0.00 | 0.70 | 0.00 | 81 | 1007.9 |
| 20260506115036 | 66 | 168 | 6.1 | 9.6 | 0.00 | 0.70 | 0.00 | 80 | 1007.9 |
| 20260506114536 | 67 | 150 | 5.2 | 12.2 | 0.00 | 0.70 | 0.00 | 80 | 1007.9 |
| 20260506114030 | 67 | 178 | 4.3 | 9.6 | 0.00 | 0.70 | 0.00 | 79 | 1007.9 |
| 20260506113530 | 67 | 182 | 3.5 | 7.8 | 0.00 | 0.70 | 0.00 | 80 | 1007.9 |
| 20260506113030 | 67 | 246 | 2.6 | 10.4 | 0.00 | 0.70 | 0.00 | 78 | 1007.9 |
| 20260506112530 | 68 | 162 | 5.2 | 10.4 | 0.00 | 0.70 | 0.00 | 79 | 1007.8 |
| 20260506112039 | 67 | 159 | 7.0 | 7.0 | 0.00 | 0.70 | 0.00 | 80 | 1007.8 |
| 20260506111530 | 67 | 161 | 4.3 | 9.6 | 0.00 | 0.70 | 0.00 | 80 | 1007.8 |
| 20260506111039 | 67 | 154 | 6.1 | 8.7 | 0.00 | 0.70 | 0.00 | 79 | 1007.8 |
| 20260506110536 | 67 | 242 | 1.7 | 7.0 | 0.00 | 0.70 | 0.00 | 79 | 1007.8 |
| 20260506110030 | 67 | 108 | 1.7 | 8.7 | 0.00 | 0.70 | 0.00 | 78 | 1007.8 |
| 20260506105530 | 67 | 190 | 6.1 | 9.6 | 0.00 | 0.70 | 0.00 | 79 | 1007.9 |
| 20260506105033 | 67 | 244 | 2.6 | 9.6 | 0.00 | 0.70 | 0.00 | 79 | 1007.8 |
| 20260506104533 | 67 | 170 | 3.5 | 8.7 | 0.00 | 0.70 | 0.00 | 80 | 1007.9 |
| 20260506104033 | 67 | 181 | 0.9 | 10.4 | 0.00 | 0.70 | 0.00 | 79 | 1007.9 |
| 20260506103533 | 67 | 181 | 4.3 | 8.7 | 0.00 | 0.70 | 0.00 | 79 | 1007.9 |
| 20260506103030 | 67 | 148 | 4.3 | 9.6 | 0.00 | 0.70 | 0.00 | 78 | 1007.8 |
| 20260506102530 | 68 | 196 | 3.5 | 6.1 | 0.00 | 0.70 | 0.00 | 79 | 1007.8 |
| 20260506102030 | 68 | 130 | 0.9 | 8.7 | 0.00 | 0.70 | 0.00 | 79 | 1007.8 |
| 20260506101530 | 68 | 103 | 2.6 | 7.0 | 0.00 | 0.70 | 0.00 | 78 | 1007.7 |
| 20260506101030 | 67 | 117 | 2.6 | 7.8 | 0.00 | 0.70 | 0.00 | 79 | 1007.6 |
| 20260506100536 | 67 | 155 | 2.6 | 7.8 | 0.00 | 0.70 | 0.00 | 80 | 1007.7 |
| 20260506100030 | 67 | 134 | 3.5 | 7.8 | 0.00 | 0.70 | 0.00 | 81 | 1007.7 |
| 20260506095536 | 66 | 157 | 2.6 | 7.8 | 0.00 | 0.70 | 0.00 | 80 | 1007.8 |
| 20260506095030 | 66 | 135 | 0.9 | 7.8 | 0.00 | 0.70 | 0.00 | 81 | 1007.8 |
| 20260506094530 | 66 | 173 | 1.7 | 5.2 | 0.00 | 0.70 | 0.00 | 81 | 1007.7 |
| 20260506094036 | 66 | 140 | 1.7 | 7.0 | 0.00 | 0.70 | 0.00 | 80 | 1007.7 |
| 20260506093533 | 66 | 167 | 4.3 | 8.7 | 0.00 | 0.70 | 0.00 | 81 | 1007.8 |
| 20260506093030 | 66 | 160 | 0.0 | 8.7 | 0.00 | 0.70 | 0.00 | 82 | 1007.7 |
| 20260506092539 | 65 | 161 | 1.7 | 7.0 | 0.00 | 0.70 | 0.00 | 84 | 1007.6 |
| 20260506092036 | 64 | 183 | 3.5 | 6.1 | 0.00 | 0.70 | 0.00 | 84 | 1007.6 |
| 20260506091533 | 64 | 138 | 1.7 | 5.2 | 0.00 | 0.70 | 0.00 | 85 | 1007.6 |
| 20260506091036 | 64 | 160 | 4.3 | 6.1 | 0.00 | 0.70 | 0.00 | 85 | 1007.6 |
| 20260506090530 | 64 | 161 | 3.5 | 4.3 | 0.00 | 0.70 | 0.00 | 85 | 1007.5 |
| 20260506090030 | 64 | 115 | 1.7 | 7.0 | 0.00 | 0.70 | 0.00 | 86 | 1007.4 |
| 20260506085530 | 64 | 172 | 4.3 | 6.1 | 0.00 | 0.70 | 0.00 | 87 | 1007.4 |
| 20260506085033 | 63 | 74 | 0.9 | 10.4 | 0.00 | 0.70 | 0.00 | 87 | 1007.3 |
| 20260506084530 | 63 | 233 | 3.5 | 6.1 | 0.00 | 0.70 | 0.00 | 88 | 1007.2 |
| 20260506084030 | 63 | 192 | 0.9 | 7.0 | 0.00 | 0.70 | 0.00 | 88 | 1007.1 |
| 20260506083536 | 63 | 242 | 0.0 | 5.2 | 0.00 | 0.70 | 0.00 | 89 | 1007.1 |
| 20260506083033 | 63 | 187 | 1.7 | 6.1 | 0.00 | 0.70 | 0.00 | 89 | 1007.1 |
| 20260506082536 | 63 | 190 | 2.6 | 9.6 | 0.00 | 0.70 | 0.00 | 90 | 1007.0 |
| 20260506082030 | 63 | 117 | 2.6 | 7.0 | 0.00 | 0.70 | 0.00 | 90 | 1007.0 |
| 20260506081533 | 63 | 109 | 2.6 | 8.7 | 0.00 | 0.70 | 0.00 | 90 | 1007.0 |
| 20260506081033 | 63 | 134 | 1.7 | 9.6 | 0.00 | 0.70 | 0.00 | 91 | 1006.9 |
| 20260506080530 | 63 | 159 | 5.2 | 8.7 | 0.00 | 0.70 | 0.00 | 91 | 1006.9 |
| 20260506073036 | 63 | 149 | 3.5 | 12.2 | 0.03 | 0.70 | 0.00 | 91 | 1006.8 |
| 20260506072529 | 63 | 169 | 4.3 | 10.4 | 0.03 | 0.70 | 0.00 | 91 | 1006.7 |
| 20260506072030 | 63 | 233 | 1.7 | 7.8 | 0.03 | 0.70 | 0.00 | 91 | 1006.6 |
| 20260506071530 | 63 | 106 | 1.7 | 8.7 | 0.03 | 0.70 | 0.00 | 91 | 1006.6 |
| 20260506071036 | 63 | 162 | 4.3 | 9.6 | 0.03 | 0.70 | 0.00 | 91 | 1006.5 |
| 20260506070530 | 63 | 140 | 4.3 | 10.4 | 0.03 | 0.70 | 0.00 | 91 | 1006.5 |
| 20260506062030 | 62 | 153 | 3.5 | 11.3 | 0.00 | 0.67 | 0.00 | 90 | 1006.0 |
| 20260506061530 | 62 | 75 | 1.7 | 9.6 | 0.00 | 0.69 | 0.00 | 89 | 1006.1 |
| 20260506061033 | 62 | 103 | 5.2 | 11.3 | 0.00 | 0.70 | 0.00 | 89 | 1006.1 |
| 20260506060533 | 61 | 120 | 2.6 | 11.3 | 0.00 | 0.71 | 0.00 | 89 | 1006.2 |
| 20260506051030 | 58 | 39 | 0.0 | 2.6 | 0.01 | 0.97 | 0.00 | 92 | 1006.5 |
| 20260506050530 | 57 | 5 | 0.0 | 1.7 | 0.02 | 0.98 | 0.00 | 92 | 1006.4 |
| 20260506045030 | 57 | 295 | 0.0 | 0.9 | 0.03 | 1.00 | 0.00 | 92 | 1006.3 |
| 20260506044530 | 58 | 266 | 0.9 | 2.6 | 0.04 | 1.01 | 0.00 | 92 | 1006.3 |
| 20260506044032 | 58 | 334 | 1.7 | 3.5 | 0.04 | 1.03 | 0.00 | 92 | 1006.3 |
| 20260506043533 | 57 | 321 | 0.9 | 2.6 | 0.04 | 1.05 | 0.00 | 92 | 1006.5 |
| 20260506043030 | 57 | 10 | 0.9 | 1.7 | 0.04 | 1.10 | 0.00 | 92 | 1006.6 |
| 20260506042533 | 58 | 315 | 0.9 | 2.6 | 0.04 | 1.14 | 0.00 | 92 | 1006.7 |
| 20260506042030 | 58 | 27 | 2.6 | 2.6 | 0.04 | 1.18 | 0.00 | 91 | 1006.8 |
| 20260506041532 | 58 | 80 | 0.9 | 3.5 | 0.04 | 1.22 | 0.00 | 91 | 1006.8 |
| 20260506041035 | 58 | 328 | 0.9 | 2.6 | 0.03 | 1.25 | 0.00 | 91 | 1007.1 |
| 20260506040532 | 58 | 310 | 0.0 | 2.6 | 0.02 | 1.27 | 0.00 | 90 | 1007.4 |
| 20260506040036 | 58 | 269 | 0.9 | 0.9 | 0.01 | 1.29 | 0.00 | 90 | 1007.3 |
| 20260506035532 | 58 | 29 | 0.0 | 0.9 | 0.00 | 1.35 | 0.00 | 89 | 1007.2 |
| 20260506035029 | 58 | 128 | 0.0 | 0.0 | 0.00 | 1.37 | 0.00 | 88 | 1007.2 |
| 20260506034533 | 58 | 128 | 0.0 | 0.0 | 0.00 | 1.37 | 0.00 | 87 | 1007.2 |
| 20260506034029 | 58 | 128 | 0.0 | 1.7 | 0.00 | 1.41 | 0.00 | 87 | 1007.1 |
| 20260506033530 | 58 | 175 | 0.9 | 0.9 | 0.01 | 1.44 | 0.00 | 86 | 1006.9 |
| 20260506033030 | 58 | 117 | 0.0 | 1.7 | 0.01 | 1.45 | 0.00 | 85 | 1006.8 |
| 20260506032538 | 58 | 78 | 0.0 | 1.7 | 0.01 | 1.46 | 0.00 | 85 | 1006.8 |
| 20260506032032 | 58 | 30 | 0.0 | 8.7 | 0.01 | 1.48 | 0.00 | 85 | 1006.7 |
| 20260506031533 | 58 | 51 | 3.5 | 7.8 | 0.02 | 1.51 | 0.00 | 86 | 1006.7 |
| 20260506031029 | 58 | 95 | 5.2 | 9.6 | 0.03 | 1.54 | 0.00 | 87 | 1006.8 |
| 20260506030529 | 58 | 67 | 5.2 | 8.7 | 0.03 | 1.55 | 0.00 | 87 | 1006.9 |
| 20260506030029 | 57 | 24 | 3.5 | 7.8 | 0.18 | 1.55 | 0.00 | 88 | 1007.1 |
| 20260506025530 | 57 | 49 | 1.7 | 8.7 | 0.19 | 1.56 | 0.00 | 88 | 1007.3 |
| 20260506025030 | 57 | 76 | 1.7 | 8.7 | 0.22 | 1.57 | 0.00 | 89 | 1007.4 |
| 20260506024535 | 57 | 29 | 1.7 | 9.6 | 0.25 | 1.57 | 0.00 | 89 | 1007.5 |
| 20260506024029 | 57 | 42 | 3.5 | 7.8 | 0.27 | 1.57 | 0.00 | 89 | 1007.7 |
| 20260506023532 | 57 | 78 | 7.0 | 7.0 | 0.29 | 1.57 | 0.00 | 90 | 1007.8 |
| 20260506023029 | 57 | 71 | 5.2 | 5.2 | 0.34 | 1.58 | 0.00 | 91 | 1008.0 |
| 20260506022530 | 57 | 347 | 3.5 | 5.2 | 0.39 | 1.59 | 0.00 | 90 | 1008.1 |
| 20260506022033 | 57 | 51 | 2.6 | 7.0 | 0.43 | 1.61 | 0.00 | 90 | 1008.2 |
| 20260506021530 | 57 | 324 | 0.9 | 3.5 | 0.44 | 1.61 | 0.00 | 90 | 1008.2 |
| 20260506021033 | 57 | 134 | 0.0 | 9.6 | 0.51 | 1.61 | 0.00 | 90 | 1008.2 |
| 20260506020535 | 57 | 9 | 7.0 | 7.0 | 0.53 | 1.62 | 0.00 | 91 | 1008.3 |
| 20260506020030 | 57 | 5 | 2.6 | 5.2 | 0.39 | 1.48 | 0.00 | 89 | 1008.2 |
| 20260506015529 | 57 | 344 | 2.6 | 7.0 | 0.37 | 1.46 | 0.00 | 89 | 1008.3 |
| 20260506015029 | 58 | 309 | 0.9 | 8.7 | 0.36 | 1.44 | 0.00 | 88 | 1008.6 |
| 20260506014530 | 58 | 319 | 4.3 | 7.0 | 0.33 | 1.40 | 0.00 | 88 | 1008.8 |
| 20260506014032 | 59 | 14 | 1.7 | 6.1 | 0.30 | 1.39 | 0.00 | 88 | 1008.8 |
| 20260506013532 | 60 | 333 | 0.9 | 6.1 | 0.28 | 1.37 | 0.00 | 89 | 1008.9 |
| 20260506013032 | 61 | 327 | 4.3 | 4.3 | 0.22 | 1.32 | 0.00 | 89 | 1009.1 |
| 20260506012529 | 61 | 246 | 1.7 | 6.1 | 0.18 | 1.27 | 0.00 | 89 | 1009.2 |
| 20260506012029 | 61 | 259 | 2.6 | 5.2 | 0.14 | 1.24 | 0.00 | 88 | 1008.9 |
| 20260506011532 | 61 | 242 | 3.5 | 3.5 | 0.12 | 1.22 | 0.00 | 88 | 1008.9 |
| 20260506011029 | 61 | 248 | 1.7 | 6.1 | 0.05 | 1.15 | 0.00 | 88 | 1008.7 |
| 20260506010529 | 61 | 246 | 2.6 | 3.5 | 0.03 | 1.13 | 0.00 | 88 | 1008.5 |
| 20260506010029 | 61 | 261 | 1.7 | 2.6 | 0.03 | 1.13 | 0.00 | 88 | 1008.5 |
| 20260506005536 | 61 | 119 | 0.9 | 1.7 | 0.03 | 1.14 | 0.00 | 88 | 1008.5 |
| 20260506005029 | 61 | 115 | 0.0 | 1.7 | 0.02 | 1.14 | 0.00 | 88 | 1008.5 |
| 20260506004529 | 61 | 117 | 0.9 | 4.3 | 0.01 | 1.14 | 0.00 | 88 | 1008.7 |
| 20260506004029 | 61 | 119 | 0.9 | 4.3 | 0.01 | 1.14 | 0.00 | 87 | 1008.8 |
| 20260506003538 | 62 | 58 | 0.9 | 6.1 | 0.01 | 1.14 | 0.00 | 88 | 1008.9 |
| 20260506003029 | 62 | 162 | 0.0 | 11.3 | 0.01 | 1.14 | 0.00 | 88 | 1008.8 |
| 20260506002529 | 62 | 140 | 4.3 | 9.6 | 0.01 | 1.14 | 0.00 | 88 | 1008.7 |
| 20260506002035 | 62 | 319 | 0.0 | 0.9 | 0.01 | 1.14 | 0.00 | 87 | 1008.5 |
| 20260506001532 | 62 | 319 | 0.0 | 0.0 | 0.00 | 1.13 | 0.00 | 87 | 1008.4 |
| 20260506001032 | 62 | 319 | 0.0 | 0.0 | 0.00 | 1.13 | 0.00 | 87 | 1008.6 |
| 20260506000535 | 62 | 319 | 0.0 | 3.5 | 0.00 | 1.12 | 0.00 | 87 | 1008.6 |
| 20260506000032 | 62 | 316 | 2.6 | 2.6 | 0.00 | 1.12 | 0.00 | 87 | 1008.7 |
| 20260505235535 | 62 | 301 | 2.6 | 2.6 | 0.00 | 1.12 | 0.00 | 87 | 1008.9 |
| 20260505235033 | 63 | 306 | 0.0 | 2.6 | 0.00 | 1.12 | 0.00 | 87 | 1008.8 |
| 20260505234530 | 63 | 306 | 2.6 | 3.5 | 0.00 | 1.12 | 0.00 | 88 | 1009.0 |
| 20260505234032 | 63 | 128 | 0.0 | 1.7 | 0.00 | 1.12 | 0.00 | 88 | 1009.3 |
| 20260505233529 | 63 | 127 | 0.0 | 1.7 | 0.00 | 1.12 | 0.00 | 87 | 1009.4 |
| 20260505233029 | 63 | 112 | 0.0 | 2.6 | 0.00 | 1.12 | 0.00 | 87 | 1009.4 |
| 20260505232532 | 63 | 117 | 0.9 | 4.3 | 0.00 | 1.12 | 0.00 | 87 | 1009.5 |
| 20260505232029 | 63 | 98 | 0.0 | 1.7 | 0.00 | 1.12 | 0.00 | 87 | 1009.7 |
| 20260505231532 | 63 | 98 | 0.0 | 1.7 | 0.00 | 1.12 | 0.00 | 86 | 1009.7 |
| 20260505231029 | 63 | 170 | 0.9 | 1.7 | 0.00 | 1.12 | 0.00 | 86 | 1009.8 |
| 20260505230530 | 63 | 184 | 0.0 | 1.7 | 0.00 | 1.12 | 0.00 | 86 | 1009.8 |
| 20260505230029 | 63 | 184 | 0.0 | 1.7 | 0.00 | 1.12 | 0.00 | 86 | 1009.9 |
| 20260505225529 | 63 | 183 | 0.0 | 2.6 | 0.00 | 1.12 | 0.00 | 86 | 1009.9 |
| 20260505225029 | 63 | 183 | 0.0 | 1.7 | 0.00 | 1.12 | 0.00 | 86 | 1009.8 |
| 20260505224535 | 63 | 182 | 1.7 | 1.7 | 0.00 | 1.12 | 0.00 | 86 | 1009.9 |
| 20260505224038 | 63 | 186 | 0.0 | 3.5 | 0.00 | 1.12 | 0.00 | 86 | 1010.0 |
| 20260505223533 | 63 | 148 | 1.7 | 4.3 | 0.00 | 1.12 | 0.00 | 86 | 1010.1 |
| 20260505223029 | 63 | 213 | 1.7 | 7.0 | 0.00 | 1.12 | 0.00 | 86 | 1010.2 |
| 20260505222533 | 63 | 169 | 0.9 | 3.5 | 0.00 | 1.12 | 0.00 | 86 | 1010.2 |
| 20260505222029 | 63 | 142 | 1.7 | 10.4 | 0.00 | 1.12 | 0.00 | 86 | 1010.3 |
| 20260505221529 | 64 | 63 | 5.2 | 10.4 | 0.00 | 1.12 | 0.00 | 86 | 1010.3 |
| 20260505221032 | 64 | 117 | 2.6 | 3.5 | 0.00 | 1.12 | 0.00 | 86 | 1010.2 |
| 20260505220532 | 64 | 157 | 0.9 | 1.7 | 0.00 | 1.12 | 0.00 | 86 | 1010.2 |
| 20260505220029 | 64 | 123 | 1.7 | 5.2 | 0.00 | 1.12 | 0.00 | 86 | 1010.2 |